STARLINK-11110, 59762

Orbit data source: Space-Track

STARLINK-11110, 59762 is a payload satellite owned by SpaceX/Seattle (US) in LEO that was launched on Tue, 14 May 2024 UTC via an FALCON 9 launch vehicle from the Air Force Western Test Range (AFWTR). Payload-class satellites include a variety of spacecraft equipped with specific instruments for various scientific and technological missions. These include communications satellites like Starlink; space stations such as the ISS; scientific satellites like the Hubble; Earth observation satellites from companies like Planet Labs, Umbra, and HawkEye 360; GPS; miniature CubeSats for education and research; and military/defense satellites.

Not visible in the next 10 days
Identifier
59762, 2024-091K
Orbit
LEO
Country
Flag of USUS
Related business
Manufacturer
SpaceX/Seattle
Mission
Operational Commercial Communications
Bus & Motor
STARLINK V2MD, Unknown motor
Mass
960 kg wet, ~910 kg dry
Launch date (UTC)
2024-05-14 (2 years ago)
Launch vehicle
FALCON 9
Launch site
Air Force Western Test Range (AFWTR)
Object type
Payload
Rocket body
Debris
Shape & HBR
Box + 2 Pan, 18.1 m
Radar Cross Section
36.964 m², Large (>1 m²)

Expand to show TLE details & history
Last TLE update: 3 days ago

TLE from 3 days ago
0 STARLINK-11110
1 59762U 24091K   26170.92908351  .00000508  00000-0  90436-5 0  9998
2 59762  53.1585  62.0784 0000817  82.5089 277.6021 15.69711966121575
Epoch: 2026-06-19T22:17Z
TLE epoch observation values (Epoch: 2026-06-19T22:17:52.815Z)
Latitude
-0.00007°
Longitude
179.45728°
Altitude
360.563 km
Speed
7.694 km/s
True Right ascension
04h 08m 18s
True Declination
0° 00' 00"
Sunlit
Object was in daylight at epoch
Visualization orbit readout
Latitude
Unknown
Longitude
Unknown
Altitude
Unknown
Speed
Unknown
Apparent Right ascension
Unknown
Apparent Declination
Unknown
Sunlit
N/A
Visualization observer readout
Local Sidereal Time
21:29:19
Azimuth
Unknown
Elevation
Unknown
Doppler factor
Unknown
Orbital elements
Apogee altitude
360.533 km
Perigee altitude
359.432 km
Semi-major axis
6,738.119 km
Eccentricity
0.00008
Inclination
53.1585°
RAAN
62.0784°
Arg. of periapsis
82.5089°
True anomaly
277.59282°
Mean anomaly
277.6021°
Eccentric anomaly
277.59746°
Mean motion
3.92406 °/min
Orbital period
91.74 mins
BSTAR
0.0000090436
Loading maneuver chart data...
Computing Atmospheric mass density...
Loading historical data...
Loading historical data...
Loading historical data...
Loading historical data...
Loading historical data...
Loading historical data...
Loading historical data...

Documentation

Showing up to 5 results
|